sat.trackr.live / text

‹ back to catalog

STARLINK-35588

NORAD 66424 · 2025-259C

PAYLOAD ACTIVE UNKNOWN

§ Identity

Operator
Country
US
Launch date
2025-11-11
Launch site
AFETR
Launch vehicle
Mass (kg)
RCS (m²)

Purposes: comms

External: N2YO · Heavens-Above · Gunter

§ Orbital elements

Epoch: 2026-09-20T00:59:10.976928Z

Period
94.27 min
Inclination
43.0033°
Eccentricity
0.0001578
Mean motion
15.27587317 rev/d
Perigee alt
481.9 km
Apogee alt
484.1 km
Semi-major
6,861.2 km
B*
4.1356e-4
RAAN
256.8628°
Arg perigee
279.8214°
Mean anomaly
80.2460°
Rev number
4,921

§ Raw data

STARLINK-355881 66424U 25259C   26263.04109927  .00011138  00000+0  41356-3 0  99912 66424  43.0033 256.8628 0001578 279.8214  80.2460 15.27587317 49210

JSON: /api/v1/satellites/66424 · /tle

For live sub-satellite position, see the globe view (requires WebGL).

§ Visibility from observer

Set your observer location to see the next 7 days of passes ≥ 10°. The values pass through the URL so the page stays shareable.

No JS? Fill the form by hand. The geolocation button needs JavaScript.